Content
SEND FEEDBACK

Daily
Averages
Monthly
Summary
United States of America

DEDEDO, GUAM


Home > North America > United States > Guam
Elevation: 364 feet     Latitude: 13 33N     Longitude: 144 49E

WEATHER
 
SELECT A DAY
Number of Records: 215,568;   Date Range: 1/1/95 - 12/19/14
 
SHARE

PRINT THIS DATA

[ ← Previous Day ]
WEATHER ALMANAC - APRIL 4, 2013
[ Next Day → ]
[ °C ]   °F
Weather ElementAverageHighLow
Temperature83.3 °F88 °F (1:54 pm)77 °F (5:54 am)
Dewpoint73.1 °F75.2 °F (2:38 am)71.6 °F (1:13 pm)
Humidity71.8 %88 % (3:54 am)58 % (1:13 pm)
Barometer29.85 in29.89 in (9:54 am)29.80 in (4:54 pm)
Wind Speed7.7 mph13.8 mph (1:54 pm)
Wind Gust23 mph (3:54 pm)
Weather ElementAverage
Visibility10 mi
Wind DirectionE (84.6 °)

Weather ElementTotal
Precipitation---
Cooling Degree Days17.5 (Base 65)
Growing Degree Days32.5 (Base 50)
Averaged from 26 records on April 4, 2013
WEATHER CONDITIONS BREAKOUT
WIND DIRECTION BREAKOUT
WEATHER BY HOUR - APRIL 4, 2013
[ °C ]   °F
Local TimeTemperatureDewpointHumidityBarometerVisibilityWind DirectionWind SpeedGust SpeedPrecipitationEventsConditions
1:54 AM80.1 °F75.0 °F85 %29.85 in10.0 miNE (40°)4.6 mph0.00 inMostly Cloudy
2:38 AM80.6 °F75.2 °F84 %29.87 in10.0 miNE (40°)3.5 mphOvercast
2:54 AM80.1 °F73.9 °F81 %29.84 in10.0 miCalmOvercast
3:54 AM79.0 °F75.0 °F88 %29.84 in10.0 miNNE (30°)4.6 mph0.00 inMostly Cloudy
4:54 AM79.0 °F73.9 °F84 %29.84 in10.0 miCalmScattered Clouds
5:54 AM77.0 °F73.0 °F88 %29.85 in10.0 miCalmClear
6:54 AM80.1 °F75.0 °F85 %29.87 in10.0 miEast (80°)3.5 mphPartly Cloudy
7:54 AM82.0 °F73.0 °F74 %29.88 in10.0 miESE (110°)4.6 mphScattered Clouds
8:54 AM84.0 °F73.0 °F69 %29.88 in10.0 miESE (110°)9.2 mphPartly Cloudy
9:54 AM86.0 °F72.0 °F63 %29.89 in10.0 miEast (90°)10.4 mph17.3 mphScattered Clouds
10:54 AM86.0 °F73.0 °F65 %29.88 in10.0 miSE (130°)11.5 mphScattered Clouds
11:54 AM87.1 °F72.0 °F61 %29.86 in10.0 miESE (120°)11.5 mph20.7 mphScattered Clouds
12:36 PM86.0 °F73.4 °F66 %29.87 in10.0 miESE (120°)10.4 mph17.3 mphMostly Cloudy
12:54 PM86.0 °F73.9 °F67 %29.84 in10.0 miESE (120°)10.4 mph19.6 mphMostly Cloudy
1:13 PM87.8 °F71.6 °F58 %29.86 in10.0 miESE (110°)8.1 mph20.7 mphMostly Cloudy
1:54 PM88.0 °F73.0 °F61 %29.82 in10.0 miEast (90°)13.8 mph20.7 mphMostly Cloudy
2:54 PM87.1 °F73.0 °F63 %29.81 in10.0 miEast (100°)11.5 mph19.6 mphScattered Clouds
3:54 PM87.1 °F73.0 °F63 %29.81 in10.0 miEast (90°)13.8 mph23.0 mphPartly Cloudy
4:54 PM87.1 °F73.0 °F63 %29.80 in10.0 miEast (90°)13.8 mph20.7 mphPartly Cloudy
5:54 PM84.0 °F73.0 °F69 %29.82 in10.0 miEast (100°)10.4 mphClear
6:54 PM82.9 °F72.0 °F69 %29.83 in10.0 miESE (110°)10.4 mphClear
7:54 PM82.9 °F73.0 °F72 %29.86 in10.0 miEast (100°)8.1 mphScattered Clouds
8:54 PM82.9 °F72.0 °F69 %29.87 in10.0 miEast (100°)9.2 mphClear
9:54 PM82.0 °F72.0 °F71 %29.88 in10.0 miEast (100°)5.8 mphPartly Cloudy
10:54 PM81.0 °F72.0 °F74 %29.89 in10.0 miESE (110°)5.8 mphScattered Clouds
11:54 PM81.0 °F72.0 °F74 %29.88 in10.0 miESE (110°)4.6 mphMostly Cloudy
Hourly data recorded from PGUM, located miles away from Dededo, Guam







STORIES FROM OUR PARTNERS